Home > Weather > Kleppestø > Past weeks

Flag for Norway Weather for the Past 2 Weeks in Kleppestø, Norway

Now
42 °F

Partly sunny.


Feels Like: 39 °F
Forecast: 40 / 44 °F
Wind: 5 mph from Southeast

Location: Bergen / Florida

Current Time: Feb 6, 2016 at 3:27:33 PM

Latest Report: Feb 6, 2016 at 1:00 PM


Visibility: 19 mi

Pressure: 29.44 "Hg

Humidity: 79%

Dew point: 36 °F

Location of KleppestøLocation

Historic Weather in Kleppestø — Graph

°F

Kleppestø Temperature Yesterday

Maximum temperature yesterday: 44 °F (at 11:00 PM)
Minimum temperature yesterday: 33 °F (at 1:00 AM)
Average temperature yesterday: 38 °F

High & Low Weather Summary for the Past Weeks

 TemperatureHumidityPressure
High54 °F (Jan 25, 2:00 PM)91% (Feb 4, 9:00 AM)30.11 "Hg (Feb 4, 9:00 AM)
Low31 °F (Feb 4, 9:00 AM)52% (Jan 22, 7:00 PM)28.70 "Hg (Feb 2, 12:00 PM)
Average41 °F81%29.50 "Hg
* Reported Jan 22 1:00 PM — Feb 6 1:00 PM, Kleppestø, Weather by CustomWeather, © 2016

Note: Actual official high and low records may vary slightly from our data, if they occured in-between our weather recording intervals... More about our weather records

Advertising

Kleppestø Weather History for the Previous 24 Hours

 ConditionsComfort  
Time TempWeatherWind HumidityBarometerVisibility
1:00 PM
Sat, Feb 6
42 °FPartly sunny.5 mph79%29.44 "Hg19 mi
12:00 PM41 °FQuite cool.3 mph83%29.47 "HgN/A
6:00 AM45 °FQuite cool.8 mph83%29.26 "HgN/A
5:00 AM45 °FQuite cool.6 mph84%29.26 "HgN/A
4:00 AM45 °FQuite cool.7 mph83%29.32 "HgN/A
3:00 AM45 °FCool.7 mph84%29.32 "HgN/A
2:00 AM45 °FQuite cool.6 mph85%29.35 "HgN/A
1:00 AM44 °FQuite cool.7 mph85%29.38 "HgN/A
12:00 AM44 °FQuite cool.6 mph85%29.44 "HgN/A
11:00 PM
Fri, Feb 5
44 °FQuite cool.6 mph86%29.47 "HgN/A
9:00 PM43 °FQuite cool.6 mph86%29.50 "HgN/A
8:00 PM43 °FQuite cool.5 mph85%29.54 "HgN/A
7:00 PM42 °FRain. Overcast.7 mph86%29.57 "Hg5 mi
6:00 PM42 °FQuite cool.7 mph85%29.59 "HgN/A
5:00 PM42 °FQuite cool.7 mph84%29.62 "HgN/A
4:00 PM41 °FDrizzle. Overcast.9 mph84%29.63 "Hg6 mi
3:00 PM40 °FChilly.8 mph81%29.65 "HgN/A
Weather by CustomWeather, © 2016

See weather overviewHow to use our weather pages